GFSNE_850_spd_159.txt.gz
Wind_Speed
25 20 18 15 11 11 14 14 16 12 6 1 5 8 9 10 7 9 7 10 7 6 5 8 16 21 25 26 27 26 28 30 35 40 27 37 42 25
26 22 20 16 11 8 8 11 14 14 14 1 3 9 2 3 8 6 8 4 4 2 3 3 5 10 16 19 19 18 22 24 22 18 29 24 31 30
24 24 22 18 14 8 5 6 7 11 15 2 9 10 4 5 6 12 11 6 9 3 4 1 3 6 9 12 13 16 18 17 17 20 21 14 18 32
23 24 26 23 16 12 7 4 2 0 7 12 12 13 13 12 13 18 20 15 10 9 4 4 1 2 4 7 9 13 16 17 21 21 25 22 20 23
23 25 25 26 23 17 12 7 4 3 2 11 14 15 16 17 14 14 18 20 18 11 8 4 4 2 3 2 2 4 7 5 6 9 11 12 16 20
23 25 27 26 25 22 18 14 10 9 12 15 15 15 16 15 17 15 14 14 17 15 14 13 13 10 7 7 4 4 3 2 3 5 7 8 9 9
21 23 26 27 26 23 21 20 17 17 16 16 16 13 13 13 13 17 16 16 16 15 13 12 13 13 13 11 11 8 5 3 2 3 5 6 7 8
18 19 22 24 26 26 24 22 21 20 21 19 20 20 18 13 8 7 9 7 8 11 14 13 11 13 15 15 14 10 9 7 6 4 3 4 6 7
17 18 19 22 23 23 23 22 23 25 25 22 21 19 16 17 18 14 11 3 7 8 9 9 10 13 15 15 15 13 11 11 10 8 6 6 5 5
16 17 18 19 21 21 20 22 24 24 25 23 22 21 18 13 9 10 14 16 11 9 11 11 6 7 10 13 14 13 13 11 10 9 9 8 7 8
16 16 17 17 19 18 17 20 22 25 24 21 20 18 16 17 16 13 7 6 15 14 11 13 12 5 6 12 14 15 13 12 12 12 11 10 9 9
14 15 16 16 16 16 17 18 20 23 20 18 16 16 16 17 17 18 19 18 9 8 15 15 16 10 3 10 11 15 14 13 14 15 16 17 15 14
11 13 14 15 15 15 16 18 20 18 16 16 17 17 17 18 19 19 20 19 19 18 18 15 14 14 9 8 10 18 19 15 16 16 16 17 19 20
8 10 11 12 13 14 15 17 15 14 14 14 15 17 19 20 20 20 20 19 18 17 16 15 15 14 13 12 13 16 21 14 20 21 20 18 17 17
6 8 9 9 10 10 11 11 11 12 13 14 16 18 18 18 16 16 15 15 15 15 15 15 14 13 12 12 13 19 22 12 21 20 20 21 22 21
4 6 6 7 8 9 9 10 11 12 13 13 14 14 13 13 14 14 14 13 13 15 17 17 17 15 12 11 11 14 17 13 20 21 20 17 17 17
2 4 5 6 6 7 8 9 9 10 10 11 12 12 12 13 14 14 15 14 15 15 16 16 17 16 16 10 10 15 17 17 18 20 20 19 15 16
1 2 3 4 5 6 7 7 8 9 10 11 11 11 11 12 12 13 14 14 14 15 16 17 17 15 12 12 11 17 18 18 20 20 19 20 20 18
1 2 3 3 4 6 6 6 7 8 9 9 10 10 11 11 12 13 13 13 12 12 13 14 16 16 14 13 7 18 17 16 18 17 16 17 17 18
2 2 3 4 4 5 6 6 7 8 9 9 9 10 10 10 10 11 11 11 10 10 10 11 13 14 12 13 12 13 16 16 18 18 19 18 17 19
4 3 4 4 4 5 5 6 7 8 8 9 10 10 10 10 10 10 10 11 10 9 10 11 12 16 11 12 13 15 16 17 18 16 18 18 20 22
5 5 5 5 5 5 6 6 7 8 9 9 10 10 10 10 10 10 10 9 8 8 9 11 12 13 12 14 15 17 19 21 18 18 15 13 16 20
6 6 6 6 6 6 6 7 7 8 8 9 10 10 10 10 10 10 10 10 11 10 10 12 13 12 13 13 15 16 18 19 20 21 17 18 19 19

GFSNE_850_spd_162.txt.gz
Wind_Speed
20 21 19 17 15 11 10 12 12 11 18 11 1 12 16 17 14 12 18 10 6 10 16 17 18 21 24 26 24 30 32 32 32 34 34 38 31 26
19 21 21 18 15 12 8 10 10 10 12 11 4 5 7 8 8 13 16 12 13 8 5 5 8 15 19 21 22 23 27 28 28 30 27 21 24 24
19 21 23 20 17 14 8 8 9 9 11 7 5 5 2 4 7 13 13 16 16 18 9 8 7 5 9 14 15 16 18 20 22 22 20 17 20 25
19 21 23 22 19 17 12 9 8 4 3 9 8 6 6 7 11 15 19 18 14 16 12 5 6 9 11 7 9 11 13 15 14 16 17 20 20 18
19 21 23 24 23 20 17 13 10 5 5 9 8 7 9 11 10 12 19 19 18 11 15 7 7 7 14 10 7 9 7 8 7 5 7 12 15 18
17 20 22 24 25 22 19 16 13 11 9 9 9 8 7 8 9 10 10 10 17 17 16 18 9 12 14 12 14 12 9 6 4 1 0 1 2 4
15 17 19 23 24 24 21 18 16 14 12 11 12 9 10 9 9 12 13 12 12 13 12 14 13 9 12 13 12 10 8 7 5 4 2 2 4 5
13 15 17 19 21 22 21 21 20 17 18 16 17 17 12 11 8 4 3 3 3 10 16 17 13 14 14 16 14 12 11 8 5 3 2 3 4 4
12 14 15 17 19 19 20 20 21 23 22 20 18 16 13 15 14 12 12 7 8 8 10 11 12 14 17 17 15 14 12 11 9 8 6 4 4 5
11 12 14 16 17 17 18 19 21 23 24 23 22 21 17 11 8 8 9 11 10 7 11 6 7 9 12 16 17 15 14 13 11 10 8 7 6 6
11 11 12 13 16 15 16 18 19 22 21 20 19 17 16 15 12 9 8 3 8 12 10 9 9 6 7 11 14 14 13 13 12 12 11 10 9 7
9 10 11 12 13 13 13 15 16 19 17 16 15 15 16 16 16 16 15 15 6 6 11 11 10 6 2 9 12 13 11 11 12 12 12 11 10 9
5 7 9 10 11 12 12 13 15 15 14 14 14 15 15 17 18 19 18 17 16 15 14 11 11 8 5 4 7 15 13 13 15 14 14 14 14 13
3 4 7 10 11 12 12 14 12 12 12 12 13 14 16 16 17 17 17 18 17 16 15 13 10 11 9 6 8 14 13 13 16 16 15 15 16 17
2 4 5 7 8 9 11 11 11 12 12 12 13 13 14 14 13 13 14 14 15 14 15 13 12 10 9 8 8 12 13 8 16 16 15 14 14 14
2 2 3 4 4 6 8 8 9 10 11 11 11 11 11 11 12 12 10 10 9 11 14 13 12 11 8 8 10 12 13 11 15 16 15 13 12 13
2 1 2 3 4 5 6 7 8 9 9 9 9 9 9 9 10 11 10 9 9 10 11 13 14 12 12 10 8 12 12 13 14 16 15 13 11 12
3 2 1 0 2 3 4 6 6 6 6 7 8 7 8 8 8 9 10 9 9 10 11 12 12 9 6 13 13 12 12 13 15 15 14 14 14 13
4 4 3 2 1 2 3 4 5 6 6 7 7 7 7 8 9 8 9 8 9 9 10 12 13 12 11 10 10 19 15 14 15 14 14 15 16 16
5 4 4 3 2 2 3 3 4 5 5 5 6 7 7 6 6 7 7 7 7 8 8 9 11 11 10 11 12 13 20 16 15 16 16 17 15 17
6 5 5 4 4 4 4 5 5 5 5 5 6 7 7 6 6 6 6 9 9 7 8 9 10 15 9 11 10 12 12 17 19 14 16 17 16 18
7 7 6 6 6 6 5 5 5 5 5 6 6 7 7 5 5 6 6 6 7 7 8 9 10 10 10 11 13 14 15 16 15 14 15 16 17 20
8 8 8 7 7 6 6 5 5 5 5 6 6 7 7 6 6 5 6 6 7 7 8 10 11 11 12 13 15 16 17 19 19 18 16 16 20 22

GFSNE_850_spd_168.txt.gz
Wind_Speed
13 17 18 16 12 11 10 10 12 17 23 13 24 17 15 19 18 20 21 16 12 7 7 6 4 8 10 10 10 14 21 19 19 25 23 33 22 18
12 15 18 16 11 12 8 7 8 11 11 18 16 14 12 13 14 16 19 20 18 14 18 12 3 5 7 12 14 16 15 16 16 15 18 23 18 18
11 14 16 17 14 13 10 7 8 11 11 8 11 10 10 11 12 16 16 21 22 22 19 14 13 13 9 9 10 15 15 12 15 14 13 15 20 19
11 13 15 16 15 14 12 10 10 13 8 7 10 10 10 12 13 14 17 18 20 24 22 18 15 19 15 16 18 18 21 24 25 22 22 19 17 17
9 11 14 15 16 16 14 12 9 8 10 8 8 8 10 10 13 15 18 20 20 24 20 21 17 19 18 16 18 21 22 18 19 18 18 17 18 17
7 9 11 13 16 17 15 14 11 8 5 6 7 6 8 10 10 13 15 19 21 24 25 27 23 21 19 20 19 19 16 21 21 21 22 19 14 13
5 7 9 10 14 16 16 16 14 10 10 8 8 7 8 11 15 11 9 11 15 19 23 23 22 22 25 22 20 21 18 13 16 17 20 18 16 14
2 4 6 8 10 13 14 15 15 15 15 13 12 12 11 10 14 19 15 6 5 14 18 22 21 24 26 25 23 20 20 15 16 17 15 16 16 14
2 3 5 6 7 9 11 13 13 15 16 17 17 18 14 10 10 11 17 16 12 9 10 16 17 22 23 22 22 21 21 20 18 20 18 19 18 14
2 2 4 5 6 8 9 9 11 12 14 16 18 18 16 13 10 6 4 10 10 7 6 15 13 17 20 21 19 20 20 21 19 18 20 19 17 17
3 3 3 4 5 5 6 7 9 10 12 13 13 14 15 15 13 8 3 3 6 10 8 9 10 7 14 20 19 17 18 19 20 18 14 17 14 15
3 2 2 2 4 4 5 5 5 9 10 11 10 10 11 13 13 13 12 11 7 5 9 10 9 8 1 13 18 16 16 17 17 19 19 17 12 10
4 2 2 1 2 3 4 5 6 8 9 9 10 11 12 11 13 13 14 14 15 13 11 7 8 9 8 6 12 16 17 17 16 17 16 16 17 16
7 3 3 2 1 2 2 4 4 6 6 8 9 10 12 13 14 15 15 14 16 15 12 9 9 11 7 8 10 12 12 15 16 14 17 17 16 16
5 3 4 3 2 1 2 2 3 4 5 6 9 11 12 13 12 14 18 18 19 18 16 12 8 7 8 7 7 11 11 11 15 13 15 14 14 13
6 5 4 3 1 0 2 3 3 4 5 5 6 8 7 10 10 8 9 8 6 12 16 15 11 13 9 7 8 7 8 10 12 10 10 9 9 12
7 6 4 1 2 3 5 3 3 3 4 4 3 3 6 3 8 8 7 6 7 9 12 12 9 10 11 10 13 10 10 9 10 9 8 5 3 5
7 5 6 7 7 5 3 6 4 3 4 4 3 2 2 5 5 6 3 5 6 7 11 14 7 7 9 8 13 15 16 17 15 11 6 8 8 5
9 7 8 7 6 6 6 6 6 3 3 4 5 3 1 2 3 4 8 2 4 5 7 11 13 11 5 8 8 14 17 20 21 19 17 13 13 12
11 10 11 9 8 7 6 6 6 6 4 6 6 5 1 1 3 1 7 8 3 5 6 7 13 15 8 10 14 14 15 19 18 24 22 22 16 15
11 11 11 10 10 11 11 8 8 6 6 6 7 6 2 1 3 3 2 4 5 4 3 7 11 13 11 10 11 14 14 14 17 20 20 24 25 28
11 11 12 11 12 11 9 7 7 6 6 6 6 7 4 2 3 2 4 2 3 6 4 6 8 6 8 9 12 14 14 17 17 11 10 13 23 21
14 14 14 13 12 10 9 8 8 10 9 8 8 8 5 4 5 3 4 3 3 6 5 10 6 4 7 7 11 14 16 18 16 17 17 16 15 19

GFSNE_850_spd_171.txt.gz
Wind_Speed
7 9 10 10 10 10 7 7 8 10 16 11 21 20 17 19 23 25 27 30 24 21 17 12 6 5 5 6 9 13 12 19 17 22 17 23 22 22
5 8 10 11 11 10 8 5 4 7 8 15 17 18 16 17 19 21 23 24 27 27 22 17 13 5 2 5 9 12 15 13 13 15 12 19 19 11
5 7 9 12 11 11 10 7 5 9 7 6 14 13 13 15 17 18 19 21 23 26 26 23 19 12 10 12 10 10 13 12 15 15 17 19 21 20
4 6 9 11 11 11 11 9 7 7 8 6 8 9 11 13 16 21 23 23 25 26 26 25 25 22 16 10 16 16 10 12 13 16 17 22 20 14
3 4 8 9 10 11 11 11 9 6 4 5 6 6 8 9 11 14 18 22 26 26 26 26 22 20 22 20 12 9 16 21 26 26 24 22 23 21
2 4 6 8 10 11 11 12 11 9 7 7 6 5 7 9 9 10 12 16 20 23 25 26 25 24 24 21 20 18 18 17 16 16 20 26 24 23
2 3 4 5 8 10 11 13 13 12 10 10 10 7 8 11 16 20 9 6 16 21 23 26 24 26 27 26 24 23 17 14 18 17 21 18 22 25
1 2 3 4 6 9 10 11 11 12 13 14 13 11 9 9 10 14 16 10 5 15 19 25 25 28 29 30 27 22 20 20 19 17 16 18 16 13
2 1 1 2 5 6 7 9 9 10 12 14 15 16 14 12 11 9 11 14 12 11 11 18 21 27 25 24 24 24 22 22 20 23 20 17 14 10
3 3 2 2 2 3 5 5 6 7 9 12 14 15 16 15 12 9 8 10 9 6 7 14 13 19 21 21 20 19 22 18 22 20 19 17 16 15
5 5 4 2 1 1 3 4 5 7 9 10 11 11 12 13 13 8 6 6 5 9 8 11 9 8 17 21 19 17 15 18 16 12 10 8 8 11
6 6 5 4 2 1 1 2 3 5 6 8 9 8 9 10 11 12 12 11 10 6 7 11 5 1 4 16 16 17 13 14 17 16 12 9 12 13
7 7 6 5 3 2 0 1 1 3 5 6 7 7 7 9 11 11 12 14 14 12 10 6 6 6 6 3 11 13 15 11 11 14 15 15 14 15
5 6 7 6 4 4 3 1 1 2 3 4 5 6 8 9 10 12 13 12 14 15 12 8 7 6 5 6 6 8 10 9 9 13 14 10 13 17
7 8 8 7 6 5 4 2 1 1 2 2 3 5 7 9 7 9 11 13 14 14 10 9 8 8 9 9 6 6 6 9 7 8 10 10 11 12
9 9 9 8 8 7 6 5 4 3 1 1 3 4 3 6 5 4 6 8 10 12 13 6 5 8 10 11 10 9 10 8 5 4 6 5 6 9
12 12 11 10 8 8 5 4 4 2 2 1 2 4 1 3 4 2 1 2 5 9 12 13 7 3 6 6 10 11 12 12 11 7 3 1 2 6
14 14 13 11 9 6 7 5 4 4 5 3 3 4 4 2 4 3 1 1 1 5 9 11 10 4 4 6 10 12 13 16 15 14 12 11 6 6
12 13 11 11 13 12 11 10 6 6 6 5 3 3 5 5 5 6 2 3 2 2 6 10 12 11 4 6 7 11 16 17 15 19 18 18 15 13
15 15 13 11 12 14 14 12 9 6 7 6 5 4 6 6 5 7 4 1 5 5 3 7 11 10 10 9 10 8 12 13 14 19 17 18 17 18
18 16 14 13 15 16 14 11 10 9 9 9 8 4 5 7 6 5 6 3 5 4 5 5 5 6 4 5 7 9 11 10 12 14 14 14 20 20
16 16 16 15 15 16 16 13 12 11 9 9 8 5 5 7 7 7 6 5 6 5 6 10 9 9 6 4 7 10 12 14 14 8 9 11 15 17
14 15 16 16 16 15 13 12 11 11 9 9 10 7 6 8 8 8 8 8 8 9 10 10 9 9 8 7 10 12 15 15 14 17 16 16 17 16

GFSNE_850_spd_174.txt.gz
Wind_Speed
4 5 6 6 6 5 5 5 5 6 10 10 17 20 19 20 21 23 23 23 22 26 27 28 23 21 9 5 8 10 9 7 13 19 20 22 22 26
2 3 4 4 5 6 6 5 3 5 6 12 15 18 16 17 19 21 23 23 20 22 24 26 27 24 21 13 5 4 7 9 8 11 17 22 14 16
1 2 3 3 3 5 6 4 4 5 5 7 13 13 13 11 14 18 21 26 26 26 25 24 23 24 21 19 18 16 22 20 17 15 14 15 18 18
1 0 2 2 3 6 7 6 5 4 6 6 10 9 12 13 14 15 19 22 25 26 26 25 24 23 20 18 15 16 19 21 24 26 29 23 28 25
4 2 1 3 4 6 7 8 6 6 7 7 8 8 10 11 13 11 14 19 22 24 24 24 25 26 25 22 23 18 13 15 22 22 19 23 24 25
5 4 3 2 4 6 7 7 7 7 6 6 6 6 8 9 12 11 10 14 19 22 25 26 25 26 25 26 29 28 23 20 13 12 19 25 27 29
6 5 4 3 3 4 6 6 8 8 6 6 6 6 6 7 12 15 13 9 14 20 23 26 26 26 30 26 27 29 29 26 22 18 15 17 15 15
7 6 4 3 2 3 4 5 6 7 7 8 8 9 9 9 10 10 14 11 7 13 18 23 25 27 27 29 25 25 27 30 27 23 21 20 17 12
8 7 5 4 3 2 2 4 4 4 6 9 10 11 11 11 10 9 10 12 10 9 11 17 19 24 23 20 21 22 21 24 22 22 22 20 19 16
11 8 6 5 4 2 1 1 2 2 4 6 8 11 12 13 11 9 8 9 9 6 6 9 12 20 21 21 18 16 19 16 16 16 16 19 20 19
12 11 9 6 4 3 2 1 1 3 5 6 7 8 10 11 12 11 8 6 3 4 3 5 6 11 16 20 17 14 15 15 16 12 14 16 18 17
14 13 11 8 5 3 3 2 1 1 1 3 4 5 6 7 7 8 9 8 3 3 1 3 5 8 6 16 14 12 9 12 13 17 12 13 16 16
13 12 11 9 8 6 5 4 3 2 1 1 1 2 3 5 7 8 9 10 9 7 5 3 3 4 5 5 11 13 10 9 10 12 14 17 16 16
11 11 11 10 8 7 6 5 5 3 1 1 1 0 1 3 5 7 8 10 11 9 6 6 6 6 5 2 6 8 7 8 7 7 5 10 14 17
11 10 10 10 9 8 8 7 6 4 3 3 3 2 3 4 4 5 7 9 9 9 6 7 7 8 7 8 7 7 2 4 6 7 8 10 12 15
13 11 11 12 11 11 9 9 8 7 6 5 3 4 3 2 2 3 4 5 8 9 9 4 5 5 7 9 9 9 9 4 3 5 7 10 12 13
16 13 13 13 12 12 11 10 9 8 7 6 6 3 5 6 2 2 3 4 4 6 8 8 5 4 5 5 7 8 10 9 10 8 5 8 10 11
18 16 15 14 14 13 12 9 8 9 7 6 7 7 6 7 6 4 4 5 6 3 5 6 8 5 5 4 7 8 10 11 10 12 10 10 7 6
18 17 17 16 16 14 12 8 8 9 8 7 8 8 9 8 8 7 4 7 7 4 4 6 8 5 1 2 4 6 10 12 11 11 10 12 12 11
15 15 17 16 14 13 13 12 11 10 9 7 7 8 10 10 9 9 6 4 8 6 5 4 5 4 3 3 4 2 7 9 11 14 13 12 13 13
13 15 16 14 13 14 14 14 12 11 10 10 8 8 10 11 10 10 8 7 8 9 9 9 8 6 8 7 4 5 7 9 10 11 12 15 18 16
17 18 18 16 14 13 14 14 14 14 13 12 9 8 9 10 11 10 9 9 11 10 10 10 10 10 10 10 9 9 11 13 13 11 10 10 15 15
15 17 16 14 13 13 15 16 15 15 12 10 10 9 10 10 11 12 12 11 11 12 12 11 10 10 9 10 11 12 13 15 15 15 13 12 12 10

GFSNE_850_spd_177.txt.gz
Wind_Speed
3 3 2 3 5 4 3 3 3 2 4 8 12 18 17 16 17 20 22 25 26 25 25 27 28 28 26 32 28 10 4 9 9 2 21 21 24 25
2 2 2 2 2 2 3 2 3 1 3 8 12 15 15 14 16 18 21 23 25 25 25 25 27 30 27 24 28 30 14 9 12 6 9 15 11 4
3 2 0 1 1 3 3 3 1 1 3 5 10 12 14 15 14 15 18 23 24 24 24 25 23 26 29 25 22 24 27 30 28 18 14 14 16 17
4 2 1 1 1 2 2 1 2 4 3 5 8 10 12 14 16 14 15 20 24 24 24 23 27 25 27 30 27 22 20 22 29 34 34 29 32 30
4 4 2 1 1 1 1 2 2 2 4 7 8 8 10 11 16 14 12 16 20 22 24 25 24 27 27 30 28 29 24 20 19 19 32 37 35 35
6 5 3 2 1 1 2 2 3 4 5 8 8 8 8 11 13 14 13 14 16 19 22 25 25 24 29 31 34 33 32 29 24 21 15 15 27 32
7 5 4 3 2 1 2 2 3 4 6 8 7 8 8 8 10 13 14 13 14 18 20 22 24 25 26 29 30 30 31 30 30 27 25 24 21 12
7 7 6 5 5 3 2 1 2 4 6 6 6 7 9 10 10 10 12 13 11 14 18 20 23 24 23 24 24 25 26 28 29 30 27 24 23 21
8 7 6 6 6 3 2 1 0 2 3 4 5 6 7 9 9 9 10 12 13 12 14 15 19 23 23 18 18 22 20 21 23 25 25 23 23 20
10 8 8 8 7 5 4 3 1 1 1 2 2 4 7 9 9 9 10 11 12 11 11 11 14 19 19 17 17 16 21 24 24 22 23 24 24 22
10 10 11 9 7 6 6 4 4 3 2 2 3 5 7 9 9 9 10 9 8 9 9 10 12 13 12 17 14 12 13 16 21 22 20 21 22 20
12 12 13 10 9 7 6 5 5 4 3 3 2 4 5 7 9 9 8 9 6 6 7 7 9 10 5 12 13 10 10 11 11 18 21 20 18 18
12 13 12 11 11 10 9 7 6 5 5 4 3 3 5 6 7 8 8 8 7 6 6 6 7 8 7 6 10 11 10 9 9 12 16 18 20 17
12 12 12 12 12 11 10 9 7 7 6 5 4 3 4 5 6 7 8 8 8 7 7 7 7 7 7 6 5 7 8 8 9 12 14 15 16 18
13 11 11 12 12 11 11 11 10 7 6 5 4 5 4 4 5 6 7 8 9 9 7 6 7 8 8 7 7 8 4 8 11 12 13 16 18 19
15 13 13 14 12 13 13 12 10 8 7 6 6 6 6 6 5 5 6 6 8 9 9 8 7 8 8 8 8 7 8 7 10 11 13 13 12 13
15 15 14 14 15 15 15 12 11 9 8 8 7 8 7 6 6 7 7 7 7 6 7 7 8 8 7 7 7 8 8 7 9 9 9 11 11 11
19 17 15 14 16 16 15 13 12 11 10 10 9 8 9 9 7 7 8 8 8 8 6 6 8 7 7 5 6 6 9 10 11 11 12 10 8 11
22 18 16 16 17 17 15 13 11 9 9 9 9 9 9 10 9 8 8 9 9 9 8 7 6 6 4 3 5 6 8 10 13 14 15 14 14 13
20 18 17 18 18 18 16 14 12 10 9 8 9 10 11 11 11 10 9 8 9 10 10 9 8 8 7 7 6 7 8 10 14 16 17 17 17 16
14 14 13 16 18 16 14 13 12 11 11 10 10 10 11 11 12 11 10 8 9 10 11 11 11 11 9 11 10 10 12 12 12 16 19 20 21 19
13 14 14 15 17 15 13 13 13 13 12 12 11 10 11 11 12 12 11 10 11 12 12 12 12 12 11 12 13 13 14 15 15 15 14 15 17 16
16 18 19 16 15 14 13 13 13 14 14 12 11 11 10 11 11 12 11 11 12 12 12 13 13 12 12 12 13 14 15 16 18 17 13 13 14 15

GFSNE_850_spd_180.txt.gz
Wind_Speed
9 8 7 5 3 2 1 2 3 4 2 4 8 11 12 13 15 17 20 23 24 23 24 26 26 28 27 24 26 30 26 20 15 15 10 4 16 17
8 7 6 5 4 3 2 3 3 4 3 4 7 10 12 14 14 15 18 21 23 22 21 24 26 29 28 27 27 25 29 31 19 36 25 23 14 6
9 8 7 6 5 4 3 3 3 3 3 3 5 8 11 13 14 14 15 20 22 24 24 22 25 28 32 29 26 27 25 27 33 34 28 36 31 28
10 9 8 7 6 4 4 3 3 4 3 2 4 6 8 11 14 14 15 18 21 23 24 24 22 26 30 32 30 29 27 25 27 27 35 37 40 28
12 10 8 7 6 5 4 4 3 3 3 4 4 5 6 9 12 14 14 15 18 21 23 25 24 23 28 30 32 31 30 27 26 27 28 23 33 41
12 10 9 8 6 5 5 5 3 4 4 3 3 4 6 8 11 13 15 15 14 18 20 23 23 22 23 27 30 32 32 32 27 26 26 27 28 25
13 11 10 9 7 6 5 5 4 4 4 3 2 3 5 7 9 13 15 16 15 17 19 21 23 22 22 26 26 28 29 30 29 29 25 24 27 26
13 12 11 10 8 7 6 5 4 4 4 2 1 3 5 8 10 11 13 15 13 15 17 19 22 22 23 23 26 28 30 30 30 30 27 26 24 23
13 11 11 11 8 7 7 6 5 3 2 1 1 2 5 7 9 10 12 13 14 14 15 16 20 20 21 20 18 24 27 29 29 29 29 30 28 25
14 13 12 10 9 7 6 6 4 3 3 2 0 2 4 7 8 9 11 12 13 14 14 12 17 16 17 18 17 18 21 25 29 29 27 28 27 26
15 14 12 10 9 8 7 6 5 3 3 3 3 2 4 5 6 8 10 11 11 11 12 13 14 15 10 17 18 16 15 17 22 26 28 25 26 24
16 14 13 11 9 9 8 7 6 5 3 3 2 3 4 6 7 8 9 9 10 8 11 11 12 13 8 12 14 13 14 15 17 20 22 23 22 21
15 13 13 11 12 11 8 7 6 5 4 4 4 4 4 5 6 7 8 8 9 9 10 11 11 11 9 10 12 14 14 14 15 16 17 19 20 20
15 15 13 12 13 12 10 9 8 6 5 5 4 4 4 5 5 5 6 7 7 8 8 10 10 10 9 9 9 11 11 14 15 16 16 16 16 18
16 14 14 14 14 12 11 10 9 8 7 6 5 4 4 5 5 5 6 7 8 9 8 8 9 9 9 8 9 11 10 11 16 16 17 17 17 17
18 17 16 15 13 12 11 10 9 8 8 7 5 6 6 5 4 5 5 6 7 8 9 9 9 9 8 8 8 9 10 9 13 16 17 16 15 15
18 17 16 14 13 13 12 10 9 9 9 8 8 7 7 6 5 5 5 6 7 7 7 9 10 9 8 8 7 8 8 10 12 13 13 14 15 15
20 18 14 11 11 13 12 10 10 9 9 9 9 9 9 8 7 6 6 7 7 8 7 7 8 9 8 7 7 8 10 11 12 13 14 13 12 14
20 17 14 13 12 14 13 11 9 9 9 9 10 10 10 10 8 7 7 7 8 9 9 7 6 7 7 6 7 9 10 11 14 15 15 16 17 16
19 17 15 15 15 15 14 12 11 10 9 8 10 11 11 10 10 9 8 8 8 10 10 9 9 9 9 8 8 11 11 13 16 17 19 18 17 15
14 15 15 15 15 15 13 11 11 11 10 9 9 10 11 11 11 10 9 8 8 9 11 12 12 13 11 11 11 11 13 14 16 18 21 22 20 17
10 12 12 12 12 13 12 11 12 13 13 12 10 11 12 11 11 11 11 10 9 10 12 13 13 13 13 13 13 13 14 15 16 16 16 17 17 15
11 11 12 12 12 13 13 13 12 13 13 13 12 12 12 11 11 11 11 11 10 10 11 12 13 13 13 13 13 14 15 16 17 16 13 13 14 15